Weather History for Goshen, IN

Change the Weather History Date:

Tuesday, February 5, 2013

  Actual Average Record
Temperature  
Mean Temperature 18 °F -  
Max Temperature 30 °F 31 °F 52 °F (1964)
Min Temperature 6 °F 16 °F -8 °F (1979)
Degree Days  
Heating Degree Days 47    
Moisture  
Dew Point 19 °F    
Average Humidity 85    
Maximum Humidity 93    
Minimum Humidity 69    
Precipitation  
Precipitation 0.01 in - - ()
Sea Level Pressure  
Sea Level Pressure 29.89 in    
Wind  
Wind Speed 5 mph (SW)    
Max Wind Speed 15 mph    
Max Gust Speed -    
Visibility 2 miles    
Events Fog , Snow    
Averages and records for this station are not official NWS values.
T = Trace of Precipitation, MM = Missing Value Source: NWS Daily Summary

Daily Weather History Graph

Daily Weather History Graph

Search for Another Location

Airport:

Trip Planner

Search our weather history database for the weather conditions in past years. The results will help you decide how hot, cold, wet, or windy it might be!

Date:

Astronomy

Feb. 05, 2013 Rise Set
Actual Time 7:50 AM EST 6:04 PM EST
Civil Twilight 7:21 AM EST 6:33 PM EST
Nautical Twilight 6:48 AM EST 7:06 PM EST
Astronomical Twilight 6:16 AM EST 7:38 PM EST
Moon 3:32 AM EST (2/5) 1:19 PM EST (2/5)
Length of Visible Light 11h 12m
Length of Day
10h 14m
Waning Crescent, 27% of the Moon is Illuminated
Feb 5
Waning Crescent
Feb 10
New
Feb 17
First Quarter
Feb 25
Full
Mar 4
Last Quarter

Hourly Weather History & Observations

Time (EST) Temp. Windchill Dew Point Humidity Pressure Visibility Wind Dir Wind Speed Gust Speed Precip Events Conditions
12:53 AM 19.9 °F - 17.1 °F 89% 29.94 in 3.0 mi Calm Calm - N/A   Clear
1:53 AM 19.0 °F 11.1 °F 16.0 °F 88% 29.95 in 4.0 mi North 5.8 mph - N/A   Mostly Cloudy
2:53 AM 18.0 °F 12.7 °F 16.0 °F 92% 29.95 in 3.0 mi NE 3.5 mph - N/A   Clear
3:53 AM 17.1 °F - 12.9 °F 84% 29.94 in 3.0 mi Calm Calm - N/A   Mostly Cloudy
4:11 AM 15.8 °F 10.2 °F 12.2 °F 86% 29.89 in 2.5 mi SE 3.5 mph - N/A   Overcast
4:53 AM 17.1 °F 11.7 °F 12.9 °F 84% 29.94 in 2.0 mi South 3.5 mph - N/A   Partly Cloudy
5:05 AM 15.8 °F - 12.2 °F 86% 29.89 in 1.8 mi Calm Calm - N/A   Clear
5:46 AM 14.0 °F - 10.4 °F 86% 29.88 in 0.8 mi Calm Calm - N/A   Clear
5:53 AM 14.0 °F - 10.9 °F 88% 29.93 in 1.2 mi Calm Calm - N/A   Clear
6:13 AM 6.8 °F -0.1 °F 5.0 °F 92% 29.91 in 0.2 mi SW 3.5 mph - N/A Fog Light Freezing Fog
6:53 AM 9.0 °F 2.4 °F 6.1 °F 88% 29.93 in 0.2 mi SE 3.5 mph - N/A Fog Light Freezing Fog
7:00 AM 10.4 °F 4.0 °F 6.8 °F 85% 29.89 in 1.2 mi SE 3.5 mph - N/A   Mostly Cloudy
7:16 AM 8.6 °F -1.3 °F 6.8 °F 92% 29.90 in 0.5 mi South 5.8 mph - N/A Fog Light Freezing Fog
7:24 AM 8.6 °F -1.3 °F 3.2 °F 79% 29.90 in 0.2 mi South 5.8 mph - N/A Fog Light Freezing Fog
7:53 AM 14.0 °F 6.5 °F 10.9 °F 88% 29.95 in 0.2 mi South 4.6 mph - N/A Fog Light Freezing Fog
8:38 AM 15.8 °F - 12.2 °F 86% 29.91 in 0.2 mi Calm Calm - N/A Fog Light Freezing Fog
9:08 AM 17.6 °F 12.3 °F 14.0 °F 86% 29.91 in 0.8 mi SSE 3.5 mph - N/A   Overcast
9:19 AM 17.6 °F 12.3 °F 15.8 °F 93% 29.90 in 1.0 mi South 3.5 mph - N/A   Overcast
9:31 AM 19.4 °F 14.3 °F 15.8 °F 86% 29.90 in 1.2 mi South 3.5 mph - N/A   Overcast
9:53 AM 19.9 °F 12.1 °F 17.1 °F 89% 29.93 in 1.2 mi SSE 5.8 mph - N/A   Overcast
10:31 AM 21.2 °F 10.9 °F 17.6 °F 86% 29.88 in 2.0 mi South 9.2 mph - N/A   Scattered Clouds
10:53 AM 21.9 °F 11.0 °F 19.0 °F 89% 29.91 in 2.5 mi South 10.4 mph - N/A   Partly Cloudy
11:03 AM 23.0 °F 13.1 °F 19.4 °F 86% 29.86 in 3.0 mi South 9.2 mph - N/A   Scattered Clouds
11:53 AM 25.0 °F 14.2 °F 19.9 °F 81% 29.90 in 5.0 mi South 11.5 mph - N/A   Haze
12:53 PM 27.0 °F 15.6 °F 19.9 °F 75% 29.86 in 6.0 mi SSW 13.8 mph - N/A   Haze
1:53 PM 28.0 °F 16.5 °F 21.0 °F 75% 29.84 in 5.0 mi South 15.0 mph - N/A   Haze
2:53 PM 28.9 °F 18.2 °F 19.9 °F 69% 29.83 in 7.0 mi SW 13.8 mph - N/A   Overcast
3:17 PM 28.4 °F 18.5 °F 21.2 °F 74% 29.80 in 1.8 mi SSW 11.5 mph - 0.00 in Snow Light Snow
3:34 PM 28.4 °F 19.7 °F 21.2 °F 74% 29.80 in 0.8 mi SW 9.2 mph - 0.00 in Snow Light Snow
3:53 PM 28.0 °F 18.6 °F 23.0 °F 81% 29.85 in 1.0 mi SW 10.4 mph - 0.00 in Snow Light Snow
4:05 PM 28.4 °F 21.2 °F 24.8 °F 86% 29.81 in 0.8 mi WSW 6.9 mph - 0.00 in Snow Light Snow
4:12 PM 28.4 °F 21.2 °F 24.8 °F 86% 29.82 in 0.5 mi SW 6.9 mph - 0.00 in Fog , Snow Light Snow
4:53 PM 28.0 °F 20.8 °F 25.0 °F 88% 29.86 in 0.5 mi SW 6.9 mph - 0.01 in Fog , Snow Light Snow
5:00 PM 28.4 °F 20.4 °F 24.8 °F 86% 29.83 in 0.8 mi SW 8.1 mph - 0.00 in Snow Light Snow
5:26 PM 28.4 °F 20.4 °F 24.8 °F 86% 29.83 in 0.5 mi SW 8.1 mph - 0.00 in Fog , Snow Light Snow
5:42 PM 28.4 °F 20.4 °F 26.6 °F 93% 29.83 in 0.8 mi SW 8.1 mph - 0.00 in Snow Light Snow
5:49 PM 28.4 °F 20.4 °F 24.8 °F 86% 29.83 in 1.2 mi SW 8.1 mph - 0.00 in Snow Light Snow
5:53 PM 28.0 °F 20.8 °F 25.0 °F 88% 29.88 in 1.2 mi SW 6.9 mph - 0.00 in Snow Light Snow
6:08 PM 28.4 °F 21.2 °F 24.8 °F 86% 29.84 in 1.5 mi SW 6.9 mph - 0.00 in Snow Light Snow
6:20 PM 28.4 °F 22.2 °F 26.6 °F 93% 29.85 in 3.0 mi WSW 5.8 mph - 0.00 in   Overcast
6:43 PM 28.4 °F 21.2 °F 26.6 °F 93% 29.86 in 4.0 mi SW 6.9 mph - 0.00 in   Overcast
6:53 PM 28.9 °F 21.9 °F 26.1 °F 89% 29.90 in 4.0 mi WSW 6.9 mph - 0.00 in   Overcast
7:05 PM 28.4 °F 19.7 °F 24.8 °F 86% 29.86 in 4.0 mi WSW 9.2 mph - N/A   Overcast
7:53 PM 30.0 °F 19.5 °F 24.1 °F 79% 29.92 in 6.0 mi West 13.8 mph - N/A   Haze
8:00 PM 30.2 °F 19.3 °F 24.8 °F 80% 29.89 in 6.0 mi West 15.0 mph - N/A   Haze
8:21 PM 30.2 °F 19.8 °F 24.8 °F 80% 29.90 in 5.0 mi West 13.8 mph - N/A   Haze
8:53 PM 30.0 °F 20.0 °F 25.0 °F 82% 29.96 in 5.0 mi West 12.7 mph - N/A   Haze
9:53 PM 30.0 °F 19.1 °F 25.0 °F 82% 29.98 in 4.0 mi WNW 15.0 mph - N/A   Haze
10:53 PM 28.9 °F 19.8 °F 26.1 °F 89% 30.01 in 4.0 mi WNW 10.4 mph - N/A   Overcast
11:27 PM 28.4 °F 19.7 °F 24.8 °F 86% 29.98 in 5.0 mi WNW 9.2 mph - N/A   Overcast
11:53 PM 28.9 °F 21.1 °F 25.0 °F 85% 30.02 in 6.0 mi WNW 8.1 mph - N/A   Overcast